CW7220 Ibiza-ciudad ES current weather conditions

sailwx.info

Wind from 117 at 1 knots gusting 6

Air temperature 25.6° C
Dewpoint 18.5° C

Last reported at 2020-Aug-03 22:05 UTC.
Time now 2020-Aug-03 23:00 UTC

Location: N 38°54' E 001°25'.
View on Google Maps.

See reports from other nearby stations

  
Tides and Currents Weather Stations Pressure Air Temp Water Temp Dewpoint Dewpoint Depression Visibility Wind Speed Wind Dir Waves Ship Positions
date/time (UTC)wind fromknots sea level pressurealtimeterstation pressurevisibilityair tempwater tempwave heightnotes
2020-Aug-03 22:05 117 1 gusting 6 25.6
2020-Aug-03 22:00 108 2 gusting 6 25.6
2020-Aug-03 21:55 089 3 gusting 6 25.6
2020-Aug-03 21:50 101 2 gusting 6 25.6
2020-Aug-03 21:45 099 2 gusting 5 25.6
2020-Aug-03 21:40 121 2 gusting 5 25.6
2020-Aug-03 21:35 100 2 gusting 6 25.6
2020-Aug-03 21:30 101 1 gusting 6 25.6
2020-Aug-03 21:25 111 2 gusting 6 25.6
2020-Aug-03 21:20 117 3 gusting 6 25.6
2020-Aug-03 21:15 081 2 gusting 6 25.6
2020-Aug-03 21:10 079 3 gusting 7 25.6
2020-Aug-03 21:05 101 5 gusting 7 25.6
2020-Aug-03 20:55 096 4 gusting 6 25.6
2020-Aug-03 20:50 089 4 gusting 6 25.6
2020-Aug-03 20:45 078 3 gusting 7 25.6
2020-Aug-03 20:40 113 5 gusting 8 25.6
2020-Aug-03 20:35 086 2 gusting 10 25.6
2020-Aug-03 20:30 092 5 gusting 7 25.6
2020-Aug-03 20:25 086 4 gusting 6 25.6
2020-Aug-03 20:20 093 2 gusting 6 25.6
2020-Aug-03 20:15 083 2 gusting 7 25.6
2020-Aug-03 20:10 106 2 gusting 7 25.6
2020-Aug-03 20:05 080 3 gusting 6 25.6
2020-Aug-03 20:00 079 5 gusting 6 25.6
2020-Aug-03 19:55 098 5 gusting 6 25.6
2020-Aug-03 19:50 096 2 gusting 6 25.6
2020-Aug-03 19:45 095 4 gusting 6 25.6
2020-Aug-03 19:40 106 3 gusting 8 25.6
2020-Aug-03 19:35 077 3 gusting 7 25.6
2020-Aug-03 19:30 082 2 gusting 7 25.6
2020-Aug-03 19:25 099 0 gusting 6 26.1
2020-Aug-03 19:20 120 1 gusting 6 26.1
2020-Aug-03 19:15 122 4 gusting 6 26.1
2020-Aug-03 19:10 106 5 gusting 6 26.1
2020-Aug-03 19:05 104 4 gusting 8 26.1
2020-Aug-03 19:00 102 3 gusting 8 26.1
2020-Aug-03 18:55 128 3 gusting 6 26.1
2020-Aug-03 18:50 098 4 gusting 7 26.1
2020-Aug-03 18:45 101 5 gusting 7 26.1
2020-Aug-03 18:40 099 3 gusting 7 26.1
2020-Aug-03 18:35 105 5 gusting 10 26.1
2020-Aug-03 18:30 128 1 gusting 8 26.1
2020-Aug-03 18:25 108 5 gusting 8 26.1
2020-Aug-03 18:20 084 4 gusting 6 26.1
2020-Aug-03 18:15 099 4 gusting 10 26.1
2020-Aug-03 18:10 112 6 gusting 10 26.1
2020-Aug-03 18:05 089 4 gusting 10 26.1
2020-Aug-03 18:00 101 6 gusting 11 26.1
2020-Aug-03 17:55 092 4 gusting 10 26.1
2020-Aug-03 17:50 110 5 gusting 10 26.1
2020-Aug-03 17:45 110 6 gusting 13 26.1
2020-Aug-03 17:40 110 6 gusting 10 26.7
2020-Aug-03 17:35 108 5 gusting 8 26.7
2020-Aug-03 17:25 097 5 gusting 7 26.7
2020-Aug-03 17:20 106 4 gusting 8 26.7
2020-Aug-03 17:15 103 6 gusting 8 26.7
2020-Aug-03 17:10 120 5 gusting 8 26.7
2020-Aug-03 17:05 117 5 gusting 8 26.7
2020-Aug-03 17:00 100 5 gusting 8 26.7
2020-Aug-03 16:55 124 3 gusting 8 26.7
2020-Aug-03 16:50 089 3 gusting 10 26.7
2020-Aug-03 16:45 107 6 gusting 10 26.7
2020-Aug-03 16:40 110 4 gusting 10 26.7
2020-Aug-03 16:35 093 5 gusting 10 27.2
2020-Aug-03 16:30 108 5 gusting 10 27.2
2020-Aug-03 16:25 092 4 gusting 8 27.2
2020-Aug-03 16:20 103 5 gusting 10 27.2
2020-Aug-03 16:15 095 4 gusting 10 27.2
2020-Aug-03 16:10 104 6 gusting 10 26.7
2020-Aug-03 16:05 102 6 gusting 8 27.2
2020-Aug-03 16:00 085 4 gusting 8 27.2
2020-Aug-03 15:55 099 6 gusting 8 27.2
2020-Aug-03 15:50 098 4 gusting 10 27.2
2020-Aug-03 15:45 100 3 gusting 10 27.2
2020-Aug-03 15:40 100 6 gusting 10 27.2
2020-Aug-03 15:35 107 4 gusting 10 27.2
2020-Aug-03 15:30 085 4 gusting 10 26.7
2020-Aug-03 15:25 101 5 gusting 10 27.2
2020-Aug-03 15:20 109 5 gusting 8 27.2
2020-Aug-03 15:15 137 4 gusting 8 27.2
2020-Aug-03 15:10 073 4 gusting 10 27.2
2020-Aug-03 15:05 107 6 gusting 10 27.2
2020-Aug-03 15:00 115 4 gusting 10 27.2
2020-Aug-03 14:55 113 5 gusting 11 27.2
2020-Aug-03 14:50 113 6 gusting 11 27.2
2020-Aug-03 14:45 113 7 gusting 11 27.2
2020-Aug-03 14:40 101 6 gusting 13 27.2
2020-Aug-03 14:35 097 7 gusting 13 27.2
2020-Aug-03 14:30 111 6 gusting 14 27.2
2020-Aug-03 14:25 104 6 gusting 12 27.2
2020-Aug-03 14:20 088 5 gusting 12 27.8
2020-Aug-03 14:15 097 5 gusting 10 27.8
2020-Aug-03 14:10 078 5 gusting 11 27.8
2020-Aug-03 14:05 092 6 gusting 11 27.8
2020-Aug-03 14:00 107 6 gusting 11 27.8
2020-Aug-03 13:55 105 5 gusting 11 27.8
2020-Aug-03 13:50 085 6 gusting 10 27.2
2020-Aug-03 13:45 081 5 gusting 10 27.2
2020-Aug-03 13:40 081 6 gusting 11 27.2
2020-Aug-03 13:35 074 6 gusting 11 27.2
2020-Aug-03 13:30 090 7 gusting 12 27.2
2020-Aug-03 13:25 103 6 gusting 12 27.2
2020-Aug-03 13:20 114 6 gusting 11 27.2
2020-Aug-03 13:15 114 5 gusting 10 27.8
2020-Aug-03 13:10 086 6 gusting 10 27.8
2020-Aug-03 13:05 069 6 gusting 11 27.8
2020-Aug-03 13:00 080 8 gusting 13 27.8
2020-Aug-03 12:55 103 7 gusting 13 27.8
2020-Aug-03 12:50 095 6 gusting 11 27.8
2020-Aug-03 12:45 087 6 gusting 12 27.8
2020-Aug-03 12:40 084 7 gusting 11 27.8
2020-Aug-03 12:35 092 7 gusting 13 27.2
2020-Aug-03 12:30 072 8 gusting 12 27.2
2020-Aug-03 12:25 076 4 gusting 10 27.2
2020-Aug-03 12:20 072 6 gusting 11 27.2
2020-Aug-03 12:15 058 7 gusting 12 26.7
2020-Aug-03 12:10 083 7 gusting 12 26.7
2020-Aug-03 12:05 083 7 gusting 12 27.2
2020-Aug-03 11:55 076 8 gusting 13 27.2
2020-Aug-03 11:50 084 7 gusting 11 27.8
2020-Aug-03 11:45 053 7 gusting 11 27.8
2020-Aug-03 11:40 089 7 gusting 11 27.8
2020-Aug-03 11:35 126 5 gusting 13 27.8
2020-Aug-03 11:30 076 8 gusting 13 27.2
2020-Aug-03 11:25 070 7 gusting 11 27.2
2020-Aug-03 11:20 070 7 gusting 13 27.2
2020-Aug-03 11:15 083 9 gusting 12 27.2
2020-Aug-03 11:10 080 7 gusting 11 27.2
2020-Aug-03 11:05 071 8 gusting 11 27.2
2020-Aug-03 11:00 077 9 gusting 13 27.2
2020-Aug-03 10:55 066 7 gusting 13 27.2
2020-Aug-03 10:50 068 9 gusting 13 27.2
2020-Aug-03 10:45 077 6 gusting 10 27.2
2020-Aug-03 10:40 075 6 gusting 10 27.2
2020-Aug-03 10:35 068 6 gusting 10 27.2
2020-Aug-03 10:30 072 7 gusting 12 27.2
2020-Aug-03 10:25 072 7 gusting 12 27.2
2020-Aug-03 10:20 070 7 gusting 11 27.2
2020-Aug-03 10:15 073 6 gusting 10 26.7
2020-Aug-03 10:10 071 8 gusting 12 26.7
2020-Aug-03 10:05 069 6 gusting 12 26.7
2020-Aug-03 10:00 076 7 gusting 12 26.7
2020-Aug-03 09:55 073 7 gusting 12 26.7
2020-Aug-03 09:50 058 7 gusting 12 26.7
2020-Aug-03 09:45 082 7 gusting 13 26.7
2020-Aug-03 09:40 077 5 gusting 11 26.7
2020-Aug-03 09:35 074 7 gusting 12 26.7
2020-Aug-03 09:30 066 7 gusting 13 26.7
2020-Aug-03 09:25 096 6 gusting 11 26.7
2020-Aug-03 09:20 097 6 gusting 10 26.7
2020-Aug-03 09:15 084 6 gusting 10 26.7
2020-Aug-03 09:10 080 4 gusting 10 26.7
2020-Aug-03 09:05 100 6 gusting 10 26.7
2020-Aug-03 09:00 082 7 gusting 12 26.7
2020-Aug-03 08:55 091 5 gusting 11 26.7
2020-Aug-03 08:50 096 5 gusting 11 26.7
2020-Aug-03 08:45 094 4 gusting 11 26.7
2020-Aug-03 08:40 082 4 gusting 11 26.7
2020-Aug-03 08:35 089 7 gusting 10 26.7
2020-Aug-03 08:30 094 6 gusting 11 26.7
2020-Aug-03 08:25 098 8 gusting 11 26.7
2020-Aug-03 08:20 080 4 gusting 10 26.7
2020-Aug-03 08:15 083 7 gusting 12 26.7
2020-Aug-03 08:10 067 8 gusting 13 26.7
2020-Aug-03 08:05 068 8 gusting 12 26.7
2020-Aug-03 08:00 076 6 gusting 12 26.7
2020-Aug-03 07:55 075 10 gusting 13 26.7
2020-Aug-03 07:50 051 7 gusting 12 26.7
2020-Aug-03 07:45 075 6 gusting 11 26.7
2020-Aug-03 07:40 072 6 gusting 10 26.7
2020-Aug-03 07:35 075 6 gusting 12 26.7
2020-Aug-03 07:25 061 6 gusting 11 26.7
2020-Aug-03 07:20 077 6 gusting 10 26.7
2020-Aug-03 07:15 085 6 gusting 10 26.7
2020-Aug-03 07:10 077 6 gusting 10 26.1
2020-Aug-03 07:05 095 5 gusting 10 26.1
2020-Aug-03 07:00 077 6 gusting 11 26.1
2020-Aug-03 06:55 077 7 gusting 11 26.1
2020-Aug-03 06:50 077 6 gusting 11 26.1
2020-Aug-03 06:45 069 6 gusting 10 26.1
2020-Aug-03 06:40 076 6 gusting 10 26.1
2020-Aug-03 06:35 055 4 gusting 6 26.1
2020-Aug-03 06:30 078 4 gusting 6 26.1
2020-Aug-03 06:25 071 3 gusting 7 26.1
2020-Aug-03 06:20 032 2 gusting 5 26.1
2020-Aug-03 06:15 035 3 gusting 6 26.1
2020-Aug-03 06:10 057 4 gusting 11 25.6
2020-Aug-03 06:05 034 4 gusting 11 25.6
2020-Aug-03 06:00 037 2 gusting 7 25.6
2020-Aug-03 05:50 028 3 gusting 6 25.6
2020-Aug-03 05:45 023 4 gusting 7 25.6
2020-Aug-03 05:40 031 2 gusting 6 25.6
2020-Aug-03 05:35 013 5 gusting 7 25.6
2020-Aug-03 05:30 022 2 gusting 4 25.6
2020-Aug-03 05:25 021 2 gusting 4 25.6
2020-Aug-03 05:20 020 2 gusting 4 25.6
2020-Aug-03 05:15 034 3 gusting 5 25.6
2020-Aug-03 05:10 023 3 gusting 6 25.6
2020-Aug-03 05:05 020 3 gusting 7 25.6
2020-Aug-03 05:00 020 4 gusting 6 25.6
2020-Aug-03 04:55 015 4 gusting 6 25.6
2020-Aug-03 04:50 034 4 gusting 7 25.6
2020-Aug-03 04:45 032 4 gusting 7 25.6
2020-Aug-03 04:40 051 2 gusting 5 26.1
2020-Aug-03 04:35 036 3 gusting 8 26.1
2020-Aug-03 04:30 059 6 gusting 10 26.1
2020-Aug-03 04:25 069 2 gusting 6 26.1
2020-Aug-03 04:20 069 2 gusting 10 26.1
2020-Aug-03 04:15 074 4 gusting 7 26.1
2020-Aug-03 04:10 081 4 gusting 6 26.1
2020-Aug-03 04:05 068 4 gusting 6 26.1
2020-Aug-03 04:00 069 5 gusting 7 26.1
2020-Aug-03 03:55 077 4 gusting 6 25.6
2020-Aug-03 03:50 080 4 gusting 7 25.6
2020-Aug-03 03:45 095 5 gusting 8 26.1
2020-Aug-03 03:40 098 4 gusting 7 26.1
2020-Aug-03 03:35 075 4 gusting 7 26.1
2020-Aug-03 03:30 085 4 gusting 7 26.1
2020-Aug-03 03:25 081 3 gusting 6 26.1
2020-Aug-03 03:20 087 3 gusting 6 26.1
2020-Aug-03 03:15 088 5 gusting 7 26.1
2020-Aug-03 03:10 077 5 gusting 7 26.1
2020-Aug-03 03:05 091 1 gusting 6 26.1
2020-Aug-03 03:00 075 4 gusting 7 26.1
2020-Aug-03 02:55 077 4 gusting 6 26.1
2020-Aug-03 02:50 070 5 gusting 7 26.1
2020-Aug-03 02:45 068 1 gusting 4 26.1
2020-Aug-03 02:40 068 2 gusting 4 26.1
2020-Aug-03 02:35 072 2 gusting 4 26.1
2020-Aug-03 02:30 083 1 gusting 4 26.1
2020-Aug-03 02:25 063 1 gusting 6 26.1
2020-Aug-03 02:20 083 2 gusting 6 26.1
2020-Aug-03 02:15 108 2 gusting 6 26.1
2020-Aug-03 02:10 113 1 gusting 5 26.1
2020-Aug-03 02:05 087 3 gusting 6 26.1
2020-Aug-03 02:00 066 2 gusting 6 26.1
2020-Aug-03 01:55 079 2 gusting 6 26.1
2020-Aug-03 01:50 094 4 gusting 6 26.1
2020-Aug-03 01:45 091 3 gusting 6 26.1
2020-Aug-03 01:40 141 1 gusting 6 26.1
2020-Aug-03 01:35 105 2 gusting 6 26.1
2020-Aug-03 01:30 127 2 gusting 6 26.1
2020-Aug-03 01:25 127 2 gusting 6 26.1
2020-Aug-03 01:20 112 1 gusting 6 26.1
2020-Aug-03 01:15 085 1 gusting 5 26.1
2020-Aug-03 01:10 104 3 gusting 6 26.1
2020-Aug-03 01:05 111 2 gusting 6 26.1
2020-Aug-03 01:00 096 4 gusting 7 26.1
2020-Aug-03 00:55 100 2 gusting 6 26.1
2020-Aug-03 00:50 132 2 gusting 6 26.1
2020-Aug-03 00:45 085 2 gusting 6 26.1
2020-Aug-03 00:40 083 3 gusting 6 26.1
2020-Aug-03 00:35 096 2 gusting 5 26.1
2020-Aug-03 00:30 109 2 gusting 5 26.1
2020-Aug-03 00:25 086 1 gusting 6 26.1
2020-Aug-03 00:20 103 2 gusting 6 26.1
2020-Aug-03 00:15 094 3 gusting 8 26.1
2020-Aug-03 00:10 103 3 gusting 6 26.1
2020-Aug-03 00:05 102 2 gusting 6 26.1
2020-Aug-03 00:00 083 3 gusting 6 26.1
2020-Aug-02 23:55 070 3 gusting 6 26.1
2020-Aug-02 23:50 083 4 gusting 6 26.1
2020-Aug-02 23:45 098 1 gusting 6 26.1
2020-Aug-02 23:40 090 2 gusting 6 26.1
2020-Aug-02 23:35 069 4 gusting 7 26.1
2020-Aug-02 23:30 083 5 gusting 7 26.7
2020-Aug-02 23:25 057 4 gusting 7 26.7
2020-Aug-02 23:20 084 4 gusting 7 26.7
2020-Aug-02 23:15 085 4 gusting 8 26.7
2020-Aug-02 23:10 059 5 gusting 10 26.7
2020-Aug-02 23:05 081 5 gusting 6 26.7
2020-Aug-02 23:00 080 2 gusting 6 26.7
2020-Aug-02 22:55 066 4 gusting 8 26.7
2020-Aug-02 22:50 087 5 gusting 8 26.1
2020-Aug-02 22:45 077 5 gusting 8 26.1
2020-Aug-02 22:40 067 4 gusting 7 26.7
2020-Aug-02 22:35 074 4 gusting 7 26.7
2020-Aug-02 22:30 091 5 gusting 7 26.7
2020-Aug-02 22:25 086 5 gusting 7 26.7
2020-Aug-02 22:20 090 4 gusting 7 26.7
2020-Aug-02 22:15 096 2 gusting 7 26.7
2020-Aug-02 22:10 082 4 gusting 7 26.7
2020-Aug-02 22:05 089 4 gusting 7 26.7
2020-Aug-02 22:00 080 6 gusting 8 26.7
2020-Aug-02 21:55 083 6 gusting 8 26.7
2020-Aug-02 21:50 110 3 gusting 10 26.7
2020-Aug-02 21:45 075 3 gusting 7 26.7
2020-Aug-02 21:40 088 5 gusting 7 26.7
2020-Aug-02 21:35 129 4 gusting 7 26.7
2020-Aug-02 21:30 089 4 gusting 8 26.7
2020-Aug-02 21:25 117 0 gusting 6 26.7
2020-Aug-02 21:20 113 3 gusting 7 26.7
2020-Aug-02 21:15 110 3 gusting 7 26.7
2020-Aug-02 21:10 102 2 gusting 7 26.7
2020-Aug-02 21:05 090 4 gusting 7 26.7
2020-Aug-02 21:00 089 3 gusting 7 26.7
2020-Aug-02 20:55 081 2 gusting 7 26.7
2020-Aug-02 20:50 109 6 gusting 10 26.7
2020-Aug-02 20:45 084 3 gusting 6 26.7
2020-Aug-02 20:40 106 3 gusting 6 26.7
2020-Aug-02 20:35 093 4 gusting 6 26.7
2020-Aug-02 20:25 084 4 gusting 6 26.7
2020-Aug-02 20:20 082 2 gusting 6 26.7
2020-Aug-02 20:15 088 1 gusting 6 26.7
2020-Aug-02 20:10 092 4 gusting 7 26.7
2020-Aug-02 20:05 111 5 gusting 7 26.7
2020-Aug-02 20:00 098 3 gusting 7 26.7
2020-Aug-02 19:55 094 4 gusting 7 26.7
2020-Aug-02 19:50 118 3 gusting 6 26.7
2020-Aug-02 19:45 085 5 gusting 7 26.7
2020-Aug-02 19:40 093 2 gusting 6 26.7
2020-Aug-02 19:35 101 2 gusting 6 26.7
2020-Aug-02 19:25 107 4 gusting 8 26.7
2020-Aug-02 19:20 085 3 gusting 7 26.7
2020-Aug-02 19:10 092 2 gusting 8 26.7
2020-Aug-02 19:05 102 2 gusting 8 26.7
2020-Aug-02 19:00 097 0 gusting 5 26.7
2020-Aug-02 18:55 077 1 gusting 10 26.7
2020-Aug-02 18:50 132 4 gusting 10 26.7
2020-Aug-02 18:40 139 5 gusting 10 27.2
2020-Aug-02 18:35 124 6 gusting 8 27.2
2020-Aug-02 18:30 125 4 gusting 10 27.2
2020-Aug-02 18:25 131 4 gusting 10 27.2
2020-Aug-02 18:15 128 5 gusting 10 27.2
2020-Aug-02 18:10 115 4 gusting 11 27.2
2020-Aug-02 18:05 134 4 gusting 11 27.2
2020-Aug-02 18:00 129 5 gusting 10 27.2
2020-Aug-02 17:55 100 5 gusting 10 27.2
2020-Aug-02 17:50 105 2 gusting 7 27.2
2020-Aug-02 17:45 113 6 gusting 8 27.2
2020-Aug-02 17:40 095 6 gusting 10 27.2
2020-Aug-02 17:35 094 6 gusting 10 27.2
2020-Aug-02 17:30 103 5 gusting 10 27.8
2020-Aug-02 17:25 100 5 gusting 10 27.8
2020-Aug-02 17:20 107 3 gusting 10 27.8
2020-Aug-02 17:15 106 4 gusting 8 27.8
2020-Aug-02 17:10 092 5 gusting 10 27.8
2020-Aug-02 17:05 107 5 gusting 10 27.8
2020-Aug-02 17:00 109 6 gusting 10 27.8
2020-Aug-02 16:55 121 6 gusting 10 27.8
2020-Aug-02 16:50 110 6 gusting 11 27.8
2020-Aug-02 16:45 107 6 gusting 11 27.8
2020-Aug-02 16:40 107 6 gusting 8 28.3
2020-Aug-02 16:35 086 5 gusting 10 28.3
2020-Aug-02 16:30 108 5 gusting 10 28.3
2020-Aug-02 16:25 108 5 gusting 10 28.3
2020-Aug-02 16:20 100 5 gusting 8 28.3
2020-Aug-02 16:15 100 6 gusting 10 28.3
2020-Aug-02 16:10 091 3 gusting 10 28.3
2020-Aug-02 16:05 107 4 gusting 10 28.3
2020-Aug-02 16:00 106 2 gusting 10 28.3
2020-Aug-02 15:55 116 2 gusting 8 28.3
2020-Aug-02 15:50 116 6 gusting 10 28.3
2020-Aug-02 15:45 119 6 gusting 11 28.3
2020-Aug-02 15:40 097 6 gusting 10 28.3
2020-Aug-02 15:35 110 6 gusting 10 28.3
2020-Aug-02 15:30 112 4 gusting 10 28.3
2020-Aug-02 15:25 108 5 gusting 10 28.3
2020-Aug-02 15:20 124 5 gusting 10 28.3
2020-Aug-02 15:15 114 6 gusting 10 28.3
2020-Aug-02 15:10 096 6 gusting 10 28.3
2020-Aug-02 15:05 121 4 gusting 10 28.3
2020-Aug-02 14:55 076 4 gusting 7 28.3
2020-Aug-02 14:50 090 6 gusting 10 28.3
2020-Aug-02 14:45 105 6 gusting 10 28.3
2020-Aug-02 14:40 090 5 gusting 10 28.3
2020-Aug-02 14:35 113 6 gusting 10 28.3
2020-Aug-02 14:30 112 6 gusting 10 28.3
2020-Aug-02 14:25 085 7 gusting 10 28.9
2020-Aug-02 14:20 115 6 gusting 10 28.9
2020-Aug-02 14:15 101 6 gusting 10 28.9
2020-Aug-02 14:10 129 6 gusting 10 28.9
2020-Aug-02 14:05 100 7 gusting 10 28.9
2020-Aug-02 14:00 076 5 gusting 8 28.9
2020-Aug-02 13:55 112 5 gusting 8 28.9
2020-Aug-02 13:50 118 6 gusting 10 28.9
2020-Aug-02 13:45 099 6 gusting 11 28.9
2020-Aug-02 13:40 113 5 gusting 10 28.9
2020-Aug-02 13:35 111 6 gusting 10 28.9
2020-Aug-02 13:30 099 7 gusting 11 28.9
2020-Aug-02 13:25 115 5 gusting 11 28.9
2020-Aug-02 13:20 121 7 gusting 13 28.9
2020-Aug-02 13:15 117 7 gusting 13 28.9
2020-Aug-02 13:10 084 6 gusting 12 28.9
2020-Aug-02 13:05 113 6 gusting 10 28.9
2020-Aug-02 13:00 087 7 gusting 13 28.9
2020-Aug-02 12:55 060 7 gusting 12 28.3
2020-Aug-02 12:50 083 8 gusting 14 28.3
2020-Aug-02 12:45 091 8 gusting 13 28.3
2020-Aug-02 12:40 098 8 gusting 14 28.3
2020-Aug-02 12:35 066 8 gusting 13 28.9
2020-Aug-02 12:30 094 8 gusting 13 28.9
2020-Aug-02 12:25 086 8 gusting 13 28.3
2020-Aug-02 12:20 076 7 gusting 13 28.9
2020-Aug-02 12:15 078 10 gusting 13 28.9
2020-Aug-02 12:10 089 9 gusting 13 28.3
2020-Aug-02 12:05 081 10 gusting 13 28.3
2020-Aug-02 12:00 075 11 gusting 13 28.3
2020-Aug-02 11:55 089 8 gusting 14 28.3
2020-Aug-02 11:50 073 10 gusting 14 28.3
2020-Aug-02 11:45 073 9 gusting 13 28.9
2020-Aug-02 11:40 091 8 gusting 13 28.3
2020-Aug-02 11:35 081 10 gusting 14 28.3
2020-Aug-02 11:30 094 7 gusting 14 28.3
2020-Aug-02 11:25 076 10 gusting 14 28.3
2020-Aug-02 11:20 093 7 gusting 11 28.3
2020-Aug-02 11:15 089 6 gusting 13 28.3
2020-Aug-02 11:10 063 10 gusting 15 28.9
2020-Aug-02 11:05 075 6 gusting 13 28.9
2020-Aug-02 11:00 101 7 gusting 12 28.9
2020-Aug-02 10:55 089 9 gusting 13 28.3
2020-Aug-02 10:50 090 8 gusting 13 28.3
2020-Aug-02 10:45 098 9 gusting 13 28.9
2020-Aug-02 10:40 075 9 gusting 13 28.9
2020-Aug-02 10:35 066 7 gusting 14 28.9
2020-Aug-02 10:30 084 7 gusting 12 28.9
2020-Aug-02 10:25 077 10 gusting 14 28.9
2020-Aug-02 10:20 086 6 gusting 12 28.9
2020-Aug-02 10:15 089 8 gusting 15 28.3
2020-Aug-02 10:10 070 11 gusting 15 28.3
2020-Aug-02 10:05 090 8 gusting 13 28.3
2020-Aug-02 10:00 074 7 gusting 12 28.3
2020-Aug-02 09:55 079 9 gusting 17 28.3
2020-Aug-02 09:50 088 7 gusting 15 28.3
2020-Aug-02 09:45 074 10 gusting 15 28.3
2020-Aug-02 09:40 071 8 gusting 13 27.8
2020-Aug-02 09:35 053 7 gusting 12 28.3
2020-Aug-02 09:30 084 8 gusting 13 28.3
2020-Aug-02 09:25 098 7 gusting 12 28.3
2020-Aug-02 09:20 094 6 gusting 11 27.8
2020-Aug-02 09:15 073 7 gusting 11 28.3
2020-Aug-02 09:10 084 7 gusting 10 28.3
2020-Aug-02 09:05 072 6 gusting 10 28.3
2020-Aug-02 09:00 080 5 gusting 7 28.3
2020-Aug-02 08:55 101 7 gusting 10 27.8
2020-Aug-02 08:50 089 6 gusting 12 27.8
2020-Aug-02 08:45 085 7 gusting 12 27.8
2020-Aug-02 08:40 074 7 gusting 12 27.8
2020-Aug-02 08:35 079 6 gusting 11 28.3
2020-Aug-02 08:30 076 5 gusting 10 27.8
2020-Aug-02 08:25 069 7 gusting 11 27.8
2020-Aug-02 08:20 074 8 gusting 12 27.8
2020-Aug-02 08:15 081 7 gusting 12 27.8
2020-Aug-02 08:10 071 9 gusting 12 27.8
2020-Aug-02 08:05 065 6 gusting 10 27.8
2020-Aug-02 08:00 072 7 gusting 11 27.8
2020-Aug-02 07:55 085 7 gusting 11 27.2
2020-Aug-02 07:50 079 7 gusting 12 27.2
2020-Aug-02 07:45 061 8 gusting 12 27.2
2020-Aug-02 07:40 045 6 gusting 11 27.2
2020-Aug-02 07:35 069 5 gusting 10 27.2
2020-Aug-02 07:30 075 5 gusting 10 27.2
2020-Aug-02 07:25 053 4 gusting 10 26.7
2020-Aug-02 07:20 023 6 gusting 10 26.7
2020-Aug-02 07:15 032 4 gusting 6 26.7
2020-Aug-02 07:10 015 4 gusting 8 26.7
2020-Aug-02 07:05 042 6 gusting 10 26.7
2020-Aug-02 07:00 043 5 gusting 10 26.7
2020-Aug-02 06:55 006 7 gusting 10 26.7
2020-Aug-02 06:50 024 6 gusting 10 26.7
2020-Aug-02 06:45 013 7 gusting 10 26.1
2020-Aug-02 06:40 013 7 gusting 11 26.1
2020-Aug-02 06:35 027 5 gusting 11 26.1
2020-Aug-02 06:30 010 6 gusting 10 26.1
2020-Aug-02 06:25 005 6 gusting 10 26.1
2020-Aug-02 06:20 008 5 gusting 10 25.6
2020-Aug-02 06:15 008 4 gusting 6 25.6
2020-Aug-02 06:10 014 4 gusting 6 25.6
2020-Aug-02 06:05 023 4 gusting 6 25.6
2020-Aug-02 06:00 028 4 gusting 6 25.6
2020-Aug-02 05:55 015 4 gusting 6 25.0
2020-Aug-02 05:50 030 3 gusting 5 25.0
2020-Aug-02 05:45 030 2 gusting 5 25.0
2020-Aug-02 05:40 040 4 gusting 5 25.0
2020-Aug-02 05:35 038 2 gusting 4 25.6
2020-Aug-02 05:30 005 0 gusting 2 25.6
2020-Aug-02 05:25 005 0 gusting 2 25.6
2020-Aug-02 05:20 005 1 gusting 2 25.6
2020-Aug-02 05:15 005 2 gusting 4 25.6
2020-Aug-02 05:10 005 2 gusting 5 25.6
2020-Aug-02 05:05 006 4 gusting 6 25.6
2020-Aug-02 05:00 322 2 gusting 5 25.6
2020-Aug-02 04:55 356 3 gusting 4 25.6
2020-Aug-02 04:50 032 2 gusting 2 25.6
2020-Aug-02 04:45 032 1 gusting 2 25.0
2020-Aug-02 04:40 032 1 gusting 2 25.0
2020-Aug-02 04:35 032 0 gusting 2 25.0
2020-Aug-02 04:25 032 1 gusting 2 25.6
2020-Aug-02 04:20 032 1 gusting 2 25.6
2020-Aug-02 04:15 032 1 gusting 2 25.6
2020-Aug-02 04:10 030 25.6
2020-Aug-02 04:05 030 0 gusting 2 25.6
2020-Aug-02 04:00 030 25.6
2020-Aug-02 03:55 030 25.6
2020-Aug-02 03:50 030 0 gusting 1 25.6
2020-Aug-02 03:45 030 0 gusting 1 25.6
2020-Aug-02 03:40 030 0 gusting 1 25.6
2020-Aug-02 03:35 030 1 gusting 2 25.6
2020-Aug-02 03:30 030 0 gusting 4 25.6
2020-Aug-02 03:25 030 1 gusting 2 25.6
2020-Aug-02 03:20 030 2 gusting 2 25.6
2020-Aug-02 03:15 030 1 gusting 2 25.6
2020-Aug-02 03:10 030 1 gusting 2 25.6
2020-Aug-02 03:05 031 1 gusting 2 25.6
2020-Aug-02 03:00 031 0 gusting 4 25.6
2020-Aug-02 02:55 035 4 gusting 4 25.6
2020-Aug-02 02:50 038 1 gusting 2 25.6
2020-Aug-02 02:45 038 1 gusting 2 25.6
2020-Aug-02 02:40 038 1 gusting 2 25.6
2020-Aug-02 02:35 038 1 gusting 2 25.6
2020-Aug-02 02:30 038 0 gusting 2 25.6
2020-Aug-02 02:25 038 2 gusting 2 25.6
2020-Aug-02 02:20 037 2 gusting 4 26.1
2020-Aug-02 02:15 069 2 gusting 2 26.1
2020-Aug-02 02:10 119 1 gusting 2 26.1
2020-Aug-02 02:05 202 26.7
2020-Aug-02 02:00 202 26.7
2020-Aug-02 01:55 202 26.7
2020-Aug-02 01:50 202 26.7
2020-Aug-02 01:45 202 0 gusting 2 26.7
2020-Aug-02 01:40 202 26.7
2020-Aug-02 01:35 202 26.7
2020-Aug-02 01:30 202 0 gusting 2 26.7
2020-Aug-02 01:25 202 1 gusting 2 26.7
2020-Aug-02 01:10 202 1 gusting 2 26.7
2020-Aug-02 01:05 202 1 gusting 2 26.7
2020-Aug-02 01:00 202 26.7
2020-Aug-02 00:55 202 1 gusting 2 26.1
2020-Aug-02 00:50 202 1 gusting 4 26.1
2020-Aug-02 00:45 202 2 gusting 2 26.1
2020-Aug-02 00:40 202 1 gusting 2 26.1
2020-Aug-02 00:35 202 1 gusting 4 26.1
2020-Aug-02 00:25 202 2 gusting 4 26.7
2020-Aug-02 00:20 201 0 gusting 4 26.7
2020-Aug-02 00:15 201 3 gusting 4 26.7
2020-Aug-02 00:10 234 2 gusting 2 26.7
2020-Aug-02 00:05 228 3 gusting 6 26.7
2020-Aug-01 23:55 250 2 gusting 4 26.7
2020-Aug-01 23:50 250 2 gusting 4 26.7
2020-Aug-01 23:45 242 1 gusting 4 26.7
2020-Aug-01 23:40 242 2 gusting 4 26.7
2020-Aug-01 23:35 250 2 gusting 6 26.7
2020-Aug-01 23:30 247 2 gusting 6 26.7
2020-Aug-01 23:25 230 4 gusting 6 26.7
2020-Aug-01 23:20 236 1 gusting 4 26.7
2020-Aug-01 23:15 242 2 gusting 4 26.7
2020-Aug-01 23:10 248 3 gusting 6 26.7
2020-Aug-01 23:05 259 3 gusting 6 26.7
2020-Aug-01 23:00 242 1 gusting 4 26.7